Weather History for KWVL - November, 2013

Change the Weather History Date:

Sunday, November 3, 2013

  Actual Average Record
Temperature  
Mean Temperature 36 °F -  
Max Temperature 41 °F 55 °F 73 °F (1990)
Min Temperature 28 °F 35 °F 15 °F (2002)
Degree Days  
Heating Degree Days 30    
Moisture  
Dew Point 21 °F    
Average Humidity 55    
Maximum Humidity 87    
Minimum Humidity 36    
Precipitation  
Precipitation 0.03 in - - ()
Sea Level Pressure  
Sea Level Pressure 30.07 in    
Wind  
Wind Speed 12 mph (NNW)    
Max Wind Speed 17 mph    
Max Gust Speed 23 mph    
Visibility 10 miles    
Events      
Averages and records for this station are not official NWS values.
T = Trace of Precipitation, MM = Missing Value Source: NWS Daily Summary

Daily Weather History Graph

Daily Weather History Graph

Search for Another Location

Airport or City:

Trip Planner

Search our weather history database for the weather conditions in past years. The results will help you decide how hot, cold, wet, or windy it might be!

Date:

Astronomy

Nov. 03, 2013 Rise Set
Actual Time 6:19 AM EST 4:24 PM EST
Civil Twilight 5:48 AM EST 4:55 PM EST
Nautical Twilight 5:14 AM EST 5:29 PM EST
Astronomical Twilight 4:40 AM EST 6:03 PM EST
Moon 6:19 AM EST (11/3) 4:35 PM EST (11/3)
Length of Visible Light 11h 06m
Length of Day
10h 05m
New Moon, 0% of the Moon is Illuminated
Nov 3
New Moon
Nov 10
First Quarter
Nov 17
Full
Nov 25
Last Quarter
Dec 2
New

Hourly Weather History & Observations

Time (EST) Temp. Windchill Dew Point Humidity Pressure Visibility Wind Dir Wind Speed Gust Speed Precip Events Conditions
12:15 AM 39.2 °F 30.8 °F 33.8 °F 81% 29.78 in 10.0 mi North 15.0 mph 21.9 mph 0.01 in   Overcast
12:35 AM 37.4 °F 29.8 °F 33.8 °F 87% 29.79 in 10.0 mi NNE 11.5 mph 16.1 mph 0.03 in   Overcast
12:55 AM 37.4 °F 30.8 °F 33.8 °F 87% 29.78 in 10.0 mi NNE 9.2 mph - 0.03 in   Overcast
1:15 AM 39.2 °F 33.0 °F 35.6 °F 87% 29.79 in 10.0 mi NNW 9.2 mph - N/A   Overcast
1:35 AM 37.4 °F 29.8 °F 33.8 °F 87% 29.80 in 10.0 mi North 11.5 mph 16.1 mph N/A   Overcast
1:55 AM 37.4 °F 29.3 °F 33.8 °F 87% 29.80 in 10.0 mi North 12.7 mph 18.4 mph N/A   Overcast
1:15 AM 37.4 °F 31.4 °F 33.8 °F 87% 29.82 in 10.0 mi North 8.1 mph - N/A   Overcast
1:35 AM 37.4 °F 31.4 °F 33.8 °F 87% 29.83 in 10.0 mi NNW 8.1 mph - N/A   Overcast
1:55 AM 37.4 °F 29.3 °F 32.0 °F 81% 29.84 in 10.0 mi NNW 12.7 mph - N/A   Overcast
2:15 AM 37.4 °F 28.2 °F 30.2 °F 75% 29.83 in 10.0 mi North 16.1 mph 21.9 mph N/A   Overcast
2:35 AM 37.4 °F 28.9 °F 28.4 °F 70% 29.84 in 10.0 mi North 13.8 mph 19.6 mph N/A   Overcast
2:55 AM 37.4 °F 29.8 °F 28.4 °F 70% 29.85 in 10.0 mi North 11.5 mph 16.1 mph N/A   Overcast
3:15 AM 37.4 °F 30.3 °F 28.4 °F 70% 29.86 in 10.0 mi North 10.4 mph - N/A   Overcast
3:35 AM 37.4 °F 30.3 °F 28.4 °F 70% 29.88 in 10.0 mi NNW 10.4 mph - N/A   Overcast
3:55 AM 37.4 °F 30.8 °F 28.4 °F 70% 29.89 in 10.0 mi North 9.2 mph - N/A   Overcast
4:15 AM 37.4 °F 30.3 °F 26.6 °F 65% 29.90 in 10.0 mi North 10.4 mph - N/A   Overcast
4:35 AM 37.4 °F 30.3 °F 26.6 °F 65% 29.91 in 10.0 mi North 10.4 mph - N/A   Overcast
4:55 AM 37.4 °F 28.9 °F 26.6 °F 65% 29.92 in 10.0 mi North 13.8 mph - N/A   Overcast
5:15 AM 37.4 °F 29.3 °F 26.6 °F 65% 29.93 in 10.0 mi North 12.7 mph - N/A   Overcast
5:35 AM 37.4 °F 30.3 °F 26.6 °F 65% 29.94 in 10.0 mi North 10.4 mph - N/A   Overcast
5:55 AM 35.6 °F 27.5 °F 24.8 °F 65% 29.95 in 10.0 mi North 11.5 mph - N/A   Overcast
6:15 AM 35.6 °F 28.6 °F 23.0 °F 60% 29.97 in 10.0 mi North 9.2 mph - N/A   Overcast
6:35 AM 35.6 °F 27.1 °F 21.2 °F 56% 29.99 in 10.0 mi North 12.7 mph - N/A   Overcast
6:55 AM 35.6 °F 27.1 °F 21.2 °F 56% 30.00 in 10.0 mi North 12.7 mph 18.4 mph N/A   Overcast
7:15 AM 35.6 °F 26.6 °F 19.4 °F 52% 30.02 in 10.0 mi North 13.8 mph 18.4 mph N/A   Overcast
7:35 AM 35.6 °F 27.5 °F 19.4 °F 52% 30.03 in 10.0 mi North 11.5 mph 21.9 mph N/A   Mostly Cloudy
7:55 AM 35.6 °F 27.1 °F 19.4 °F 52% 30.04 in 10.0 mi North 12.7 mph - N/A   Partly Cloudy
8:15 AM 35.6 °F 25.9 °F 19.4 °F 52% 30.05 in 10.0 mi North 16.1 mph 19.6 mph N/A   Mostly Cloudy
8:35 AM 35.6 °F 27.1 °F 21.2 °F 56% 30.05 in 10.0 mi North 12.7 mph 16.1 mph N/A   Overcast
8:55 AM 35.6 °F 26.2 °F 19.4 °F 52% 30.06 in 10.0 mi North 15.0 mph - N/A   Overcast
9:15 AM 35.6 °F 27.1 °F 17.6 °F 48% 30.07 in 10.0 mi North 12.7 mph - N/A   Scattered Clouds
9:35 AM 37.4 °F 27.8 °F 17.6 °F 45% 30.07 in 10.0 mi North 17.3 mph 23.0 mph N/A   Clear
9:55 AM 37.4 °F 29.8 °F 19.4 °F 48% 30.07 in 10.0 mi North 11.5 mph - N/A   Clear
10:15 AM 37.4 °F 28.5 °F 19.4 °F 48% 30.08 in 6.0 mi North 15.0 mph - N/A   Clear
10:35 AM 37.4 °F 28.5 °F 17.6 °F 45% 30.08 in 10.0 mi North 15.0 mph 19.6 mph N/A   Clear
10:55 AM 39.2 °F 30.8 °F 17.6 °F 42% 30.08 in 10.0 mi NNW 15.0 mph 20.7 mph N/A   Clear
11:15 AM 39.2 °F 30.8 °F 17.6 °F 42% 30.08 in 10.0 mi North 15.0 mph 20.7 mph N/A   Clear
11:35 AM 39.2 °F 31.6 °F 15.8 °F 39% 30.08 in 10.0 mi North 12.7 mph 19.6 mph N/A   Clear
11:55 AM 39.2 °F 33.0 °F 17.6 °F 42% 30.08 in 10.0 mi NNW 9.2 mph 17.3 mph N/A   Clear
12:15 PM 41.0 °F 35.2 °F 17.6 °F 39% 30.08 in 10.0 mi NNW 9.2 mph 18.4 mph N/A   Clear
12:35 PM 41.0 °F 33.9 °F 17.6 °F 39% 30.08 in 10.0 mi NNW 12.7 mph 18.4 mph N/A   Clear
12:55 PM 41.0 °F 34.3 °F 17.6 °F 39% 30.08 in 10.0 mi North 11.5 mph - N/A   Clear
1:15 PM 41.0 °F 32.8 °F 17.6 °F 39% 30.09 in 10.0 mi NW 16.1 mph - N/A   Clear
1:35 PM 41.0 °F 33.9 °F 17.6 °F 39% 30.10 in 10.0 mi NNW 12.7 mph - N/A   Clear
1:55 PM 41.0 °F 34.3 °F 17.6 °F 39% 30.10 in 10.0 mi NNW 11.5 mph 19.6 mph N/A   Clear
2:15 PM 41.0 °F 33.1 °F 17.6 °F 39% 30.12 in 10.0 mi NNW 15.0 mph 18.4 mph N/A   Clear
2:35 PM 41.0 °F 33.1 °F 15.8 °F 36% 30.13 in 10.0 mi North 15.0 mph 18.4 mph N/A   Clear
2:55 PM 41.0 °F 34.3 °F 15.8 °F 36% 30.14 in 10.0 mi NNW 11.5 mph 18.4 mph N/A   Clear
3:15 PM 39.2 °F 30.8 °F 15.8 °F 39% 30.15 in 10.0 mi NNW 15.0 mph 19.6 mph N/A   Clear
3:35 PM 39.2 °F 31.6 °F 15.8 °F 39% 30.16 in 10.0 mi NNW 12.7 mph 20.7 mph N/A   Clear
3:55 PM 39.2 °F 32.0 °F 15.8 °F 39% 30.16 in 10.0 mi NW 11.5 mph - N/A   Clear
4:15 PM 37.4 °F 29.3 °F 15.8 °F 41% 30.17 in 10.0 mi NNW 12.7 mph - N/A   Clear
4:35 PM 37.4 °F 30.8 °F 15.8 °F 41% 30.18 in 10.0 mi NW 9.2 mph - N/A   Clear
4:55 PM 35.6 °F 28.6 °F 15.8 °F 44% 30.19 in 10.0 mi NNW 9.2 mph - N/A   Clear
5:15 PM 35.6 °F 29.2 °F 15.8 °F 44% 30.20 in 10.0 mi NW 8.1 mph - N/A   Clear
5:35 PM 35.6 °F 29.2 °F 15.8 °F 44% 30.22 in 10.0 mi NW 8.1 mph - N/A   Clear
5:55 PM 33.8 °F 27.0 °F 15.8 °F 48% 30.24 in 10.0 mi NW 8.1 mph - N/A   Clear
6:15 PM 33.8 °F 26.4 °F 15.8 °F 48% 30.24 in 10.0 mi NW 9.2 mph - N/A   Clear
6:35 PM 33.8 °F 25.3 °F 15.8 °F 48% 30.26 in 10.0 mi NW 11.5 mph - N/A   Clear
6:55 PM 33.8 °F 24.8 °F 15.8 °F 48% 30.27 in 10.0 mi NW 12.7 mph 16.1 mph N/A   Clear
7:15 PM 33.8 °F 25.3 °F 15.8 °F 48% 30.27 in 10.0 mi NW 11.5 mph - N/A   Clear
7:35 PM 33.8 °F 25.3 °F 15.8 °F 48% 30.27 in 10.0 mi NW 11.5 mph - N/A   Clear
7:55 PM 32.0 °F 24.2 °F 15.8 °F 51% 30.27 in 10.0 mi NNW 9.2 mph - N/A   Clear
8:15 PM 32.0 °F 23.0 °F 15.8 °F 51% 30.29 in 10.0 mi NNW 11.5 mph - N/A   Clear
8:35 PM 30.2 °F 21.9 °F 15.8 °F 55% 30.30 in 10.0 mi NNW 9.2 mph - N/A   Clear
8:55 PM 30.2 °F 21.9 °F 14.0 °F 51% 30.31 in 10.0 mi NNW 9.2 mph - N/A   Clear
9:15 PM 30.2 °F 22.6 °F 14.0 °F 51% 30.32 in 10.0 mi NW 8.1 mph - N/A   Clear
9:35 PM 30.2 °F 23.4 °F 14.0 °F 51% 30.33 in 10.0 mi NW 6.9 mph - N/A   Clear
9:55 PM 30.2 °F 23.4 °F 14.0 °F 51% 30.33 in 10.0 mi NNW 6.9 mph - N/A   Clear
10:15 PM 30.2 °F 23.4 °F 15.8 °F 55% 30.34 in 10.0 mi NNW 6.9 mph - N/A   Clear
10:35 PM 30.2 °F 23.4 °F 14.0 °F 51% 30.34 in 10.0 mi NNW 6.9 mph - N/A   Clear
10:55 PM 28.4 °F 20.4 °F 15.8 °F 59% 30.35 in 10.0 mi NNW 8.1 mph - N/A   Clear